QPF
0.02 0.02 0.03 0.02 0.03 0.02 0.04 0.06 0.06 0.09 0.06 0.06 0.06 0.07 0.05 0.03 0.04 0.03 0.03 0.02 0.04 0.04 0.06 0.08 0.07 0.05 0.04 0.05 0.05 0.04 0.05 0.04 0.05 0.06 0.07 0.09 0.11 0.13 0.14 0.13 0.11 0.10 0.09
0.03 0.02 0.04 0.04 0.03 0.02 0.03 0.04 0.04 0.03 0.03 0.04 0.03 0.03 0.04 0.04 0.04 0.03 0.03 0.03 0.03 0.04 0.05 0.06 0.05 0.06 0.06 0.05 0.05 0.04 0.04 0.04 0.04 0.08 0.09 0.10 0.11 0.13 0.14 0.13 0.12 0.10 0.08
0.03 0.03 0.03 0.04 0.02 0.03 0.03 0.03 0.03 0.05 0.07 0.05 0.02 0.02 0.03 0.04 0.03 0.03 0.03 0.03 0.03 0.04 0.05 0.05 0.06 0.07 0.08 0.07 0.05 0.04 0.04 0.04 0.04 0.08 0.12 0.13 0.14 0.13 0.14 0.13 0.10 0.07 0.06
0.05 0.06 0.06 0.05 0.04 0.04 0.04 0.04 0.03 0.06 0.06 0.05 0.03 0.02 0.03 0.02 0.02 0.03 0.03 0.03 0.03 0.04 0.04 0.05 0.07 0.09 0.10 0.09 0.08 0.07 0.06 0.06 0.09 0.15 0.19 0.19 0.16 0.15 0.14 0.12 0.08 0.06 0.05
0.05 0.08 0.08 0.06 0.05 0.05 0.06 0.06 0.04 0.05 0.05 0.04 0.04 0.03 0.02 0.02 0.02 0.03 0.03 0.02 0.03 0.04 0.03 0.04 0.06 0.09 0.09 0.09 0.09 0.08 0.07 0.07 0.11 0.17 0.17 0.16 0.16 0.16 0.13 0.09 0.07 0.06 0.05
0.08 0.09 0.07 0.05 0.05 0.05 0.05 0.06 0.07 0.06 0.05 0.05 0.03 0.03 0.03 0.03 0.03 0.04 0.03 0.04 0.04 0.04 0.04 0.05 0.04 0.06 0.08 0.10 0.09 0.08 0.07 0.09 0.11 0.14 0.13 0.13 0.14 0.12 0.10 0.09 0.08 0.06 0.04
0.10 0.11 0.08 0.05 0.06 0.06 0.06 0.06 0.06 0.06 0.05 0.05 0.03 0.02 0.02 0.03 0.04 0.03 0.04 0.05 0.04 0.05 0.04 0.04 0.04 0.04 0.04 0.05 0.06 0.07 0.08 0.10 0.10 0.11 0.12 0.11 0.11 0.09 0.07 0.06 0.07 0.05 0.03
0.05 0.07 0.07 0.06 0.06 0.06 0.06 0.07 0.07 0.06 0.04 0.04 0.02 0.01 0.01 0.02 0.04 0.03 0.03 0.04 0.05 0.06 0.06 0.05 0.04 0.05 0.04 0.03 0.03 0.04 0.06 0.08 0.09 0.10 0.10 0.10 0.09 0.06 0.05 0.04 0.04 0.04 0.03
0.04 0.03 0.05 0.06 0.07 0.09 0.08 0.08 0.09 0.07 0.04 0.03 0.03 0.03 0.02 0.01 0.02 0.03 0.04 0.05 0.06 0.07 0.08 0.08 0.07 0.07 0.07 0.06 0.05 0.05 0.05 0.05 0.07 0.09 0.10 0.09 0.08 0.05 0.03 0.02 0.02 0.03 0.04
0.05 0.05 0.04 0.04 0.05 0.05 0.05 0.06 0.07 0.07 0.04 0.03 0.04 0.04 0.03 0.02 0.02 0.02 0.02 0.02 0.04 0.04 0.04 0.05 0.05 0.06 0.06 0.05 0.05 0.04 0.04 0.05 0.05 0.07 0.09 0.09 0.08 0.05 0.04 0.03 0.03 0.02 0.03
0.08 0.09 0.09 0.09 0.07 0.05 0.04 0.06 0.07 0.06 0.05 0.03 0.04 0.04 0.04 0.03 0.03 0.02 0.02 0.02 0.02 0.02 0.03 0.03 0.03 0.02 0.02 0.03 0.03 0.03 0.03 0.04 0.05 0.05 0.06 0.09 0.09 0.07 0.07 0.06 0.05 0.04 0.04
0.10 0.13 0.13 0.10 0.10 0.09 0.06 0.05 0.05 0.04 0.03 0.03 0.05 0.04 0.05 0.04 0.04 0.03 0.02 0.02 0.02 0.02 0.02 0.01 0.02 0.03 0.03 0.04 0.04 0.03 0.04 0.05 0.05 0.05 0.06 0.06 0.05 0.06 0.06 0.05 0.05 0.06 0.07
0.06 0.09 0.11 0.14 0.14 0.12 0.08 0.06 0.04 0.04 0.04 0.04 0.05 0.05 0.05 0.04 0.04 0.04 0.03 0.02 0.02 0.02 0.02 0.02 0.02 0.02 0.03 0.03 0.03 0.04 0.04 0.05 0.06 0.06 0.05 0.04 0.05 0.04 0.05 0.06 0.06 0.07 0.07
0.04 0.06 0.09 0.10 0.13 0.13 0.10 0.08 0.06 0.06 0.06 0.05 0.05 0.06 0.05 0.03 0.04 0.05 0.04 0.04 0.03 0.02 0.01 0.01 0.02 0.02 0.02 0.01 0.02 0.02 0.02 0.03 0.05 0.06 0.05 0.03 0.03 0.04 0.05 0.05 0.05 0.05 0.05
0.04 0.04 0.05 0.06 0.06 0.06 0.06 0.07 0.08 0.07 0.08 0.07 0.06 0.06 0.05 0.04 0.04 0.04 0.04 0.04 0.04 0.03 0.03 0.02 0.02 0.01 0.01 0.01 0.02 0.02 0.02 0.03 0.04 0.04 0.04 0.03 0.03 0.03 0.04 0.03 0.04 0.05 0.05
0.02 0.02 0.03 0.03 0.03 0.03 0.04 0.07 0.08 0.09 0.09 0.08 0.07 0.07 0.06 0.04 0.04 0.03 0.03 0.03 0.04 0.04 0.04 0.04 0.02 0.01 0.01 0.01 0.03 0.02 0.02 0.04 0.05 0.05 0.04 0.03 0.03 0.03 0.05 0.04 0.04 0.05 0.05
0.01 0.01 0.01 0.02 0.02 0.02 0.03 0.05 0.07 0.09 0.08 0.07 0.07 0.08 0.06 0.06 0.06 0.05 0.04 0.04 0.05 0.04 0.04 0.03 0.02 0.01 0.01 0.01 0.02 0.02 0.02 0.02 0.03 0.03 0.02 0.02 0.02 0.02 0.03 0.05 0.05 0.05 0.05
0.01 0.02 0.01 0.01 0.02 0.02 0.02 0.03 0.05 0.06 0.05 0.05 0.06 0.07 0.06 0.06 0.05 0.06 0.05 0.05 0.04 0.04 0.03 0.03 0.02 0.01 0.02 0.02 0.02 0.01 0.02 0.02 0.02 0.02 0.02 0.02 0.02 0.02 0.01 0.02 0.02 0.02 0.03
0.02 0.03 0.02 0.02 0.02 0.02 0.02 0.02 0.03 0.04 0.05 0.04 0.04 0.04 0.05 0.06 0.05 0.05 0.04 0.03 0.03 0.03 0.03 0.03 0.03 0.03 0.02 0.02 0.02 0.02 0.02 0.02 0.01 0.02 0.02 0.03 0.03 0.02 0.02 0.01 0.02 0.02 0.02
0.05 0.05 0.05 0.04 0.04 0.03 0.02 0.03 0.04 0.05 0.06 0.05 0.05 0.04 0.03 0.03 0.04 0.04 0.04 0.03 0.03 0.02 0.02 0.02 0.03 0.04 0.04 0.03 0.03 0.02 0.02 0.02 0.02 0.03 0.03 0.03 0.03 0.03 0.03 0.02 0.03 0.03 0.03
0.07 0.07 0.06 0.06 0.07 0.06 0.04 0.05 0.07 0.07 0.08 0.07 0.05 0.04 0.03 0.04 0.04 0.05 0.04 0.03 0.02 0.02 0.02 0.02 0.03 0.04 0.05 0.05 0.04 0.02 0.02 0.03 0.03 0.03 0.02 0.02 0.03 0.02 0.02 0.02 0.03 0.03 0.02
0.06 0.04 0.04 0.04 0.05 0.05 0.06 0.08 0.09 0.11 0.10 0.07 0.04 0.04 0.03 0.02 0.03 0.04 0.04 0.05 0.04 0.03 0.04 0.04 0.05 0.06 0.07 0.09 0.06 0.03 0.03 0.04 0.03 0.02 0.02 0.02 0.02 0.02 0.03 0.03 0.02 0.03 0.02
0.06 0.04 0.03 0.04 0.05 0.06 0.08 0.09 0.09 0.09 0.08 0.06 0.05 0.05 0.04 0.02 0.03 0.02 0.05 0.06 0.04 0.04 0.06 0.10 0.12 0.12 0.12 0.12 0.12 0.09 0.06 0.04 0.03 0.03 0.03 0.03 0.03 0.03 0.03 0.03 0.02 0.02 0.02
0.06 0.05 0.04 0.05 0.06 0.07 0.10 0.11 0.11 0.08 0.04 0.03 0.04 0.04 0.03 0.02 0.02 0.02 0.02 0.02 0.02 0.02 0.04 0.06 0.09 0.11 0.12 0.14 0.15 0.15 0.11 0.09 0.08 0.07 0.06 0.03 0.02 0.03 0.04 0.04 0.04 0.03 0.02
0.06 0.07 0.06 0.07 0.08 0.10 0.13 0.13 0.11 0.08 0.04 0.02 0.03 0.03 0.02 0.02 0.02 0.02 0.02 0.01 0.01 0.01 0.02 0.04 0.06 0.09 0.10 0.11 0.12 0.13 0.14 0.13 0.12 0.10 0.10 0.08 0.05 0.04 0.05 0.05 0.06 0.06 0.04
0.08 0.08 0.09 0.10 0.11 0.10 0.10 0.11 0.12 0.09 0.04 0.03 0.02 0.02 0.03 0.03 0.03 0.03 0.03 0.02 0.01 0.01 0.02 0.02 0.03 0.05 0.05 0.06 0.07 0.08 0.11 0.12 0.11 0.11 0.11 0.12 0.11 0.08 0.07 0.07 0.07 0.07 0.05
MSLP
1016.31 1016.49 1016.61 1016.69 1016.78 1016.90 1017.06 1017.26 1017.48 1017.69 1017.84 1017.92 1017.92 1017.84 1017.72 1017.59 1017.49 1017.44 1017.46 1017.55 1017.69 1017.86 1018.03 1018.19 1018.32 1018.42 1018.50 1018.59 1018.68 1018.80 1018.95 1019.12 1019.30 1019.50 1019.70 1019.90 1020.08 1020.26 1020.42 1020.56 1020.70 1020.83 1020.95
1016.49 1016.66 1016.77 1016.84 1016.92 1017.01 1017.16 1017.34 1017.54 1017.73 1017.88 1017.96 1017.95 1017.87 1017.73 1017.57 1017.41 1017.30 1017.26 1017.28 1017.38 1017.52 1017.68 1017.85 1018.00 1018.13 1018.24 1018.34 1018.44 1018.55 1018.68 1018.83 1019.00 1019.20 1019.40 1019.60 1019.79 1019.97 1020.14 1020.29 1020.43 1020.56 1020.68
1016.56 1016.73 1016.84 1016.92 1016.99 1017.09 1017.21 1017.37 1017.55 1017.73 1017.87 1017.95 1017.94 1017.86 1017.70 1017.50 1017.30 1017.12 1017.00 1016.96 1016.98 1017.08 1017.21 1017.37 1017.54 1017.69 1017.82 1017.94 1018.05 1018.16 1018.28 1018.42 1018.58 1018.76 1018.96 1019.17 1019.37 1019.56 1019.74 1019.91 1020.06 1020.20 1020.33
1016.49 1016.67 1016.80 1016.91 1017.00 1017.10 1017.22 1017.37 1017.54 1017.70 1017.83 1017.90 1017.89 1017.80 1017.63 1017.40 1017.15 1016.92 1016.72 1016.59 1016.54 1016.56 1016.65 1016.78 1016.93 1017.09 1017.24 1017.37 1017.49 1017.61 1017.73 1017.86 1018.02 1018.19 1018.39 1018.60 1018.81 1019.02 1019.22 1019.40 1019.58 1019.74 1019.90
1016.28 1016.47 1016.64 1016.78 1016.90 1017.03 1017.16 1017.31 1017.46 1017.61 1017.73 1017.79 1017.79 1017.70 1017.52 1017.28 1017.00 1016.71 1016.44 1016.22 1016.08 1016.02 1016.03 1016.11 1016.23 1016.37 1016.51 1016.65 1016.78 1016.90 1017.02 1017.15 1017.30 1017.48 1017.68 1017.89 1018.12 1018.35 1018.57 1018.79 1018.99 1019.19 1019.38
1015.93 1016.14 1016.34 1016.52 1016.69 1016.84 1017.00 1017.15 1017.30 1017.43 1017.55 1017.61 1017.61 1017.54 1017.38 1017.14 1016.84 1016.51 1016.18 1015.88 1015.65 1015.49 1015.41 1015.41 1015.47 1015.57 1015.68 1015.81 1015.93 1016.05 1016.17 1016.31 1016.46 1016.64 1016.85 1017.07 1017.32 1017.56 1017.81 1018.06 1018.29 1018.52 1018.74
1015.46 1015.67 1015.90 1016.12 1016.32 1016.52 1016.69 1016.85 1016.99 1017.13 1017.24 1017.31 1017.33 1017.28 1017.15 1016.93 1016.64 1016.30 1015.93 1015.58 1015.26 1015.01 1014.83 1014.73 1014.71 1014.74 1014.81 1014.90 1015.00 1015.11 1015.23 1015.36 1015.52 1015.70 1015.92 1016.16 1016.42 1016.69 1016.96 1017.23 1017.49 1017.75 1017.99
1014.89 1015.09 1015.33 1015.57 1015.80 1016.02 1016.21 1016.37 1016.51 1016.64 1016.75 1016.84 1016.88 1016.87 1016.79 1016.62 1016.37 1016.05 1015.67 1015.28 1014.91 1014.58 1014.31 1014.12 1014.00 1013.95 1013.96 1014.00 1014.06 1014.14 1014.24 1014.37 1014.52 1014.71 1014.94 1015.19 1015.47 1015.75 1016.04 1016.33 1016.60 1016.87 1017.12
1014.27 1014.43 1014.65 1014.89 1015.13 1015.35 1015.53 1015.69 1015.82 1015.93 1016.04 1016.14 1016.22 1016.26 1016.24 1016.14 1015.96 1015.68 1015.34 1014.96 1014.56 1014.18 1013.85 1013.58 1013.38 1013.25 1013.18 1013.15 1013.16 1013.21 1013.28 1013.39 1013.53 1013.72 1013.94 1014.20 1014.48 1014.77 1015.07 1015.37 1015.64 1015.91 1016.16
1013.63 1013.74 1013.91 1014.12 1014.33 1014.52 1014.68 1014.80 1014.91 1015.00 1015.10 1015.21 1015.32 1015.41 1015.46 1015.45 1015.36 1015.17 1014.89 1014.55 1014.17 1013.79 1013.43 1013.11 1012.85 1012.66 1012.52 1012.43 1012.39 1012.38 1012.41 1012.48 1012.60 1012.77 1012.98 1013.22 1013.50 1013.79 1014.09 1014.37 1014.65 1014.90 1015.15
1013.01 1013.05 1013.16 1013.31 1013.47 1013.61 1013.72 1013.79 1013.85 1013.91 1013.98 1014.09 1014.22 1014.36 1014.48 1014.56 1014.56 1014.48 1014.30 1014.05 1013.73 1013.39 1013.04 1012.72 1012.43 1012.20 1012.01 1011.87 1011.77 1011.71 1011.69 1011.72 1011.79 1011.92 1012.10 1012.32 1012.58 1012.85 1013.13 1013.40 1013.66 1013.90 1014.13
1012.47 1012.44 1012.47 1012.55 1012.64 1012.70 1012.75 1012.76 1012.75 1012.76 1012.80 1012.89 1013.02 1013.19 1013.37 1013.53 1013.64 1013.67 1013.61 1013.46 1013.24 1012.97 1012.69 1012.40 1012.13 1011.89 1011.69 1011.51 1011.37 1011.25 1011.18 1011.14 1011.16 1011.24 1011.37 1011.54 1011.76 1012.00 1012.25 1012.50 1012.73 1012.96 1013.17
1012.04 1011.95 1011.92 1011.92 1011.93 1011.93 1011.90 1011.84 1011.77 1011.72 1011.71 1011.77 1011.89 1012.07 1012.29 1012.51 1012.70 1012.83 1012.88 1012.85 1012.75 1012.59 1012.40 1012.18 1011.97 1011.76 1011.56 1011.37 1011.19 1011.04 1010.90 1010.81 1010.76 1010.76 1010.83 1010.94 1011.11 1011.30 1011.51 1011.73 1011.93 1012.14 1012.33
1011.75 1011.63 1011.56 1011.51 1011.46 1011.39 1011.30 1011.18 1011.06 1010.95 1010.89 1010.91 1011.00 1011.17 1011.40 1011.65 1011.90 1012.10 1012.25 1012.33 1012.34 1012.30 1012.21 1012.09 1011.95 1011.80 1011.63 1011.45 1011.27 1011.08 1010.89 1010.73 1010.61 1010.54 1010.53 1010.57 1010.67 1010.80 1010.97 1011.14 1011.32 1011.50 1011.67
1011.65 1011.53 1011.44 1011.37 1011.29 1011.19 1011.07 1010.91 1010.74 1010.60 1010.50 1010.47 1010.52 1010.66 1010.87 1011.12 1011.38 1011.63 1011.84 1011.99 1012.10 1012.16 1012.18 1012.16 1012.10 1012.02 1011.91 1011.75 1011.57 1011.36 1011.14 1010.92 1010.73 1010.58 1010.48 1010.45 1010.47 1010.55 1010.65 1010.78 1010.92 1011.07 1011.23
1011.74 1011.65 1011.59 1011.53 1011.46 1011.37 1011.24 1011.08 1010.90 1010.73 1010.60 1010.54 1010.55 1010.64 1010.80 1011.02 1011.26 1011.50 1011.73 1011.93 1012.10 1012.23 1012.33 1012.40 1012.43 1012.42 1012.35 1012.24 1012.07 1011.86 1011.61 1011.34 1011.09 1010.87 1010.70 1010.59 1010.54 1010.54 1010.59 1010.66 1010.76 1010.87 1011.00
1012.02 1011.99 1011.98 1011.98 1011.95 1011.90 1011.81 1011.68 1011.52 1011.36 1011.22 1011.12 1011.09 1011.13 1011.23 1011.39 1011.57 1011.78 1011.98 1012.18 1012.37 1012.53 1012.68 1012.81 1012.90 1012.95 1012.94 1012.86 1012.72 1012.51 1012.25 1011.95 1011.66 1011.38 1011.14 1010.96 1010.84 1010.78 1010.76 1010.78 1010.82 1010.88 1010.97
1012.46 1012.52 1012.58 1012.65 1012.69 1012.71 1012.68 1012.60 1012.49 1012.35 1012.22 1012.11 1012.05 1012.03 1012.07 1012.15 1012.26 1012.40 1012.55 1012.71 1012.87 1013.04 1013.20 1013.36 1013.48 1013.57 1013.60 1013.56 1013.44 1013.24 1012.98 1012.67 1012.35 1012.03 1011.74 1011.51 1011.32 1011.20 1011.12 1011.07 1011.06 1011.06 1011.09
1013.04 1013.17 1013.32 1013.46 1013.58 1013.67 1013.71 1013.70 1013.64 1013.54 1013.43 1013.33 1013.24 1013.18 1013.16 1013.17 1013.21 1013.26 1013.34 1013.44 1013.56 1013.69 1013.83 1013.99 1014.12 1014.23 1014.28 1014.26 1014.17 1013.99 1013.73 1013.42 1013.08 1012.74 1012.42 1012.14 1011.91 1011.73 1011.59 1011.49 1011.41 1011.36 1011.32
1013.72 1013.91 1014.12 1014.32 1014.51 1014.67 1014.77 1014.82 1014.81 1014.76 1014.68 1014.58 1014.49 1014.40 1014.33 1014.28 1014.25 1014.24 1014.24 1014.27 1014.33 1014.41 1014.52 1014.65 1014.77 1014.87 1014.93 1014.93 1014.84 1014.68 1014.44 1014.13 1013.79 1013.44 1013.11 1012.80 1012.53 1012.30 1012.11 1011.95 1011.82 1011.70 1011.59
1014.47 1014.69 1014.93 1015.18 1015.41 1015.60 1015.75 1015.83 1015.87 1015.85 1015.79 1015.71 1015.62 1015.53 1015.43 1015.35 1015.27 1015.20 1015.14 1015.11 1015.11 1015.14 1015.21 1015.29 1015.39 1015.47 1015.52 1015.51 1015.43 1015.27 1015.04 1014.75 1014.41 1014.06 1013.72 1013.39 1013.10 1012.84 1012.61 1012.40 1012.21 1012.03 1011.87
1015.23 1015.47 1015.72 1015.97 1016.21 1016.42 1016.57 1016.68 1016.73 1016.73 1016.69 1016.63 1016.55 1016.46 1016.36 1016.26 1016.16 1016.06 1015.97 1015.90 1015.85 1015.84 1015.85 1015.89 1015.95 1015.99 1016.01 1015.99 1015.90 1015.74 1015.51 1015.22 1014.90 1014.55 1014.20 1013.87 1013.56 1013.28 1013.02 1012.78 1012.55 1012.33 1012.11
1016.00 1016.23 1016.46 1016.70 1016.92 1017.10 1017.25 1017.34 1017.39 1017.40 1017.37 1017.32 1017.26 1017.19 1017.10 1017.01 1016.91 1016.80 1016.69 1016.60 1016.51 1016.46 1016.43 1016.43 1016.43 1016.44 1016.42 1016.36 1016.25 1016.07 1015.84 1015.55 1015.22 1014.88 1014.53 1014.19 1013.88 1013.59 1013.31 1013.05 1012.80 1012.55 1012.29
1016.74 1016.95 1017.16 1017.36 1017.55 1017.70 1017.81 1017.88 1017.91 1017.91 1017.88 1017.85 1017.80 1017.74 1017.68 1017.60 1017.51 1017.41 1017.30 1017.19 1017.09 1017.00 1016.93 1016.88 1016.84 1016.79 1016.72 1016.62 1016.47 1016.27 1016.01 1015.71 1015.37 1015.02 1014.68 1014.34 1014.02 1013.73 1013.45 1013.19 1012.93 1012.66 1012.40
1017.43 1017.62 1017.81 1017.98 1018.13 1018.24 1018.32 1018.36 1018.37 1018.35 1018.33 1018.29 1018.26 1018.21 1018.16 1018.10 1018.02 1017.93 1017.82 1017.70 1017.58 1017.46 1017.35 1017.24 1017.14 1017.04 1016.91 1016.76 1016.56 1016.32 1016.03 1015.70 1015.35 1014.99 1014.64 1014.30 1013.99 1013.70 1013.43 1013.17 1012.92 1012.66 1012.41
1018.05 1018.24 1018.42 1018.57 1018.69 1018.78 1018.82 1018.84 1018.83 1018.81 1018.77 1018.74 1018.70 1018.66 1018.62 1018.56 1018.48 1018.37 1018.25 1018.11 1017.96 1017.80 1017.65 1017.49 1017.34 1017.17 1016.98 1016.77 1016.51 1016.22 1015.90 1015.54 1015.17 1014.80 1014.43 1014.10 1013.79 1013.50 1013.24 1013.00 1012.77 1012.54 1012.30
Thickness
5769 5768 5767 5766 5765 5764 5763 5762 5761 5759 5758 5757 5756 5755 5754 5753 5752 5752 5751 5751 5751 5750 5749 5748 5747 5746 5745 5744 5744 5743 5742 5740 5738 5736 5734 5732 5731 5729 5727 5726 5724 5723 5721
5768 5767 5766 5765 5764 5763 5762 5761 5759 5758 5757 5756 5755 5754 5754 5753 5752 5752 5751 5750 5750 5749 5748 5747 5746 5745 5744 5743 5743 5742 5741 5739 5737 5735 5733 5732 5730 5728 5726 5726 5724 5722 5721
5768 5766 5764 5763 5763 5762 5761 5759 5758 5756 5755 5754 5754 5753 5753 5752 5752 5751 5750 5749 5748 5747 5747 5746 5745 5745 5744 5742 5742 5741 5739 5738 5736 5734 5732 5731 5729 5727 5726 5725 5724 5722 5720
5768 5766 5764 5762 5762 5761 5760 5758 5756 5754 5753 5752 5751 5751 5752 5751 5751 5750 5749 5748 5747 5746 5746 5745 5744 5744 5743 5742 5741 5739 5738 5737 5735 5733 5731 5730 5728 5727 5725 5724 5723 5721 5720
5768 5766 5764 5762 5761 5760 5759 5757 5755 5753 5751 5750 5750 5750 5750 5750 5749 5749 5748 5747 5747 5746 5745 5744 5743 5742 5741 5740 5739 5738 5737 5736 5734 5732 5730 5729 5727 5726 5725 5723 5722 5720 5719
5767 5766 5764 5762 5761 5759 5757 5755 5753 5752 5750 5749 5749 5748 5748 5749 5748 5747 5747 5747 5746 5745 5744 5743 5742 5741 5740 5738 5738 5736 5736 5735 5733 5731 5729 5728 5726 5725 5723 5722 5721 5719 5718
5766 5765 5763 5761 5760 5757 5756 5754 5752 5750 5748 5747 5745 5743 5745 5746 5746 5746 5746 5745 5745 5744 5742 5741 5740 5739 5738 5737 5736 5735 5734 5733 5731 5730 5728 5727 5725 5724 5723 5721 5720 5718 5717
5766 5765 5762 5760 5759 5756 5754 5753 5751 5748 5747 5746 5742 5738 5735 5738 5741 5744 5744 5743 5743 5742 5741 5740 5738 5737 5736 5735 5734 5733 5733 5732 5730 5729 5727 5726 5724 5723 5722 5721 5719 5718 5716
5765 5764 5762 5760 5758 5756 5754 5752 5750 5747 5743 5743 5742 5737 5731 5729 5733 5738 5740 5740 5740 5739 5739 5738 5737 5736 5734 5733 5732 5731 5731 5730 5729 5727 5726 5725 5724 5722 5721 5719 5718 5716 5715
5764 5763 5761 5759 5758 5755 5754 5752 5750 5748 5744 5741 5740 5739 5737 5735 5729 5729 5734 5736 5736 5736 5736 5736 5735 5734 5733 5731 5730 5730 5729 5728 5727 5726 5725 5723 5722 5720 5719 5717 5716 5715 5714
5763 5762 5760 5758 5756 5754 5753 5751 5749 5747 5745 5742 5739 5737 5735 5733 5731 5727 5725 5729 5731 5733 5733 5733 5732 5732 5731 5730 5729 5728 5727 5726 5725 5724 5723 5721 5720 5719 5717 5716 5715 5714 5713
5762 5761 5759 5758 5756 5754 5752 5750 5748 5746 5744 5741 5738 5736 5734 5732 5729 5726 5724 5724 5725 5728 5730 5730 5730 5729 5728 5727 5727 5726 5725 5724 5723 5722 5721 5720 5718 5717 5715 5714 5713 5712 5712
5759 5759 5759 5757 5755 5754 5752 5750 5747 5744 5742 5739 5737 5735 5733 5733 5731 5727 5724 5722 5721 5723 5725 5726 5726 5725 5725 5724 5724 5723 5723 5722 5721 5720 5719 5718 5716 5714 5713 5712 5711 5710 5710
5759 5759 5757 5756 5754 5753 5751 5748 5746 5743 5741 5738 5736 5734 5731 5731 5729 5727 5724 5720 5717 5717 5718 5721 5723 5722 5721 5721 5721 5720 5720 5719 5719 5718 5717 5715 5714 5712 5710 5709 5708 5708 5707
5759 5758 5756 5754 5752 5751 5748 5746 5744 5741 5738 5736 5734 5732 5729 5728 5727 5726 5723 5721 5716 5712 5713 5716 5717 5719 5718 5717 5717 5717 5716 5716 5715 5714 5713 5712 5711 5709 5707 5706 5705 5704 5703
5758 5756 5754 5752 5750 5748 5746 5744 5741 5739 5736 5733 5731 5729 5727 5726 5725 5723 5720 5718 5716 5712 5709 5712 5712 5714 5714 5714 5714 5713 5712 5712 5711 5710 5709 5708 5706 5705 5704 5702 5701 5700 5699
5757 5755 5753 5750 5748 5746 5744 5741 5739 5737 5734 5731 5729 5727 5725 5723 5722 5720 5718 5716 5713 5710 5707 5708 5709 5710 5709 5709 5709 5708 5708 5708 5707 5706 5705 5704 5702 5701 5700 5698 5697 5696 5695
5756 5754 5751 5748 5746 5744 5742 5739 5736 5734 5732 5729 5727 5725 5723 5722 5719 5718 5715 5713 5711 5709 5705 5703 5705 5705 5705 5705 5704 5704 5704 5703 5702 5702 5700 5699 5698 5697 5696 5695 5693 5692 5691
5754 5751 5749 5746 5744 5742 5740 5738 5735 5732 5730 5728 5725 5722 5720 5718 5716 5714 5712 5710 5708 5706 5703 5701 5700 5701 5700 5699 5698 5698 5698 5697 5698 5697 5696 5695 5694 5693 5692 5691 5689 5688 5687
5750 5748 5746 5744 5742 5740 5738 5735 5733 5730 5727 5725 5722 5719 5717 5716 5714 5711 5709 5706 5704 5701 5699 5697 5695 5695 5694 5693 5692 5691 5691 5691 5692 5692 5691 5690 5689 5688 5687 5686 5685 5684 5682
5748 5745 5743 5740 5738 5736 5734 5732 5730 5727 5724 5721 5719 5717 5715 5713 5711 5709 5706 5703 5700 5697 5695 5693 5691 5690 5689 5687 5686 5686 5686 5686 5686 5686 5685 5685 5684 5684 5683 5682 5681 5679 5678
5744 5741 5739 5737 5734 5733 5731 5729 5727 5723 5720 5717 5714 5712 5711 5709 5707 5705 5703 5700 5698 5694 5691 5689 5687 5685 5684 5683 5682 5681 5680 5679 5679 5681 5679 5680 5679 5679 5679 5678 5677 5675 5674
5740 5737 5736 5733 5731 5729 5727 5724 5722 5718 5715 5712 5709 5707 5706 5705 5702 5699 5697 5695 5693 5691 5689 5687 5683 5681 5680 5679 5677 5676 5675 5674 5674 5674 5673 5673 5673 5673 5673 5673 5672 5671 5669
5735 5733 5731 5728 5725 5723 5721 5719 5715 5712 5709 5706 5703 5701 5699 5698 5696 5693 5691 5689 5687 5686 5684 5682 5680 5678 5677 5675 5673 5671 5670 5669 5668 5667 5666 5666 5667 5667 5668 5667 5667 5666 5664
5728 5726 5724 5721 5718 5717 5715 5712 5709 5704 5701 5699 5697 5695 5693 5691 5689 5687 5685 5682 5681 5680 5678 5676 5674 5672 5670 5669 5667 5665 5663 5661 5661 5661 5659 5658 5660 5660 5661 5661 5661 5660 5659
5722 5720 5717 5714 5712 5710 5709 5707 5703 5699 5695 5692 5690 5689 5687 5685 5683 5680 5678 5675 5673 5672 5670 5669 5667 5665 5663 5661 5659 5658 5656 5655 5653 5653 5653 5651 5652 5651 5652 5654 5653 5652 5651